,,Stat6,,Stat2,,Stat8,,Stat9,,Stat10,,Wind1,,Wind1,
time,status,PA1M_AVG,status,PR1M_SUM,status,RH1M_AVG,status,SR1M_AVG,status,TA1M_AVG,status,W1dAve1m,status,W1sAve1m,
2007-10-15, 07:00:01,VALID,918.676,VALID,0,VALID,100,VALID,72.1516,VALID,19.0738,VALID,44,VALID,0.5,
2007-10-15, 07:01:00,VALID,918.696,VALID,0,VALID,100,VALID,72.3383,VALID,19.0707,VALID,48,VALID,0.779344,
2007-10-15, 07:02:00,VALID,918.708,VALID,0,VALID,100,VALID,71.778,VALID,19.0383,VALID,50,VALID,0.966388,
2007-10-15, 07:03:00,VALID,918.716,VALID,0,VALID,100,VALID,70.2837,VALID,19.0251,VALID,51,VALID,0.808308,
2007-10-15, 07:04:00,VALID,918.729,VALID,0,VALID,100,VALID,67.7365,VALID,19.048,VALID,61,VALID,0.788132,
2007-10-15, 07:05:00,VALID,918.734,VALID,0,VALID,100,VALID,65.0705,VALID,19.0905,VALID,78,VALID,0.852604,
2007-10-15, 07:06:00,VALID,918.75,VALID,0,VALID,100,VALID,62.8291,VALID,19.1129,VALID,77,VALID,0.843006,
2007-10-15, 07:07:00,VALID,918.764,VALID,0,VALID,100,VALID,60.7404,VALID,19.1132,VALID,81,VALID,0.925604,
2007-10-15, 07:08:00,VALID,918.776,VALID,0,VALID,100,VALID,59.0084,VALID,19.1039,VALID,72,VALID,1.17225,
2007-10-15, 07:09:00,VALID,918.803,VALID,0,VALID,100,VALID,57.4971,VALID,19.0677,VALID,80,VALID,0.956101,
2007-10-15, 07:10:00,VALID,918.807,VALID,0,VALID,100,VALID,55.3745,VALID,19.081,VALID,94,VALID,1.13635,
2007-10-15, 07:11:00,VALID,918.831,VALID,0,VALID,100,VALID,53.0821,VALID,19.0807,VALID,98,VALID,1.07254,
2007-10-15, 07:12:00,VALID,918.842,VALID,0,VALID,100,VALID,51.1463,VALID,19.0909,VALID,96,VALID,0.861607,
2007-10-15, 07:13:00,VALID,918.85,VALID,0,VALID,100,VALID,49.3123,VALID,19.0543,VALID,96,VALID,0.537305,
2007-10-15, 07:14:00,VALID,918.876,VALID,0,VALID,100,VALID,46.918,VALID,19.1199,VALID,83,VALID,0.22745,
2007-10-15, 07:15:00,VALID,918.909,VALID,0,VALID,100,VALID,45.4577,VALID,19.1166,VALID,67,VALID,0.654297,
2007-10-15, 07:16:00,VALID,918.929,VALID,0,VALID,100,VALID,44.9483,VALID,19.045,VALID,81,VALID,0.817708,
2007-10-15, 07:17:00,VALID,918.967,VALID,0,VALID,100,VALID,46.3916,VALID,19.0388,VALID,107,VALID,0.828683,
2007-10-15, 07:18:00,VALID,918.977,VALID,0,VALID,100,VALID,52.1142,VALID,19.0712,VALID,120,VALID,1.06555,
2007-10-15, 07:19:00,VALID,918.986,VALID,0.2,VALID,100,VALID,60.8933,VALID,19.0555,VALID,106,VALID,1.20387,
2007-10-15, 07:20:00,VALID,918.968,VALID,0.2,VALID,100,VALID,70.6572,VALID,19.0223,VALID,105,VALID,0.828887,
2007-10-15, 07:21:00,VALID,918.965,VALID,0,VALID,100,VALID,78.0099,VALID,19.0348,VALID,88,VALID,0.510121,
2007-10-15, 07:22:00,VALID,918.955,VALID,0,VALID,100,VALID,84.7343,VALID,19.0527,VALID,98,VALID,0.858467,
2007-10-15, 07:23:00,VALID,918.954,VALID,0.2,VALID,100,VALID,91.0173,VALID,19.031,VALID,95,VALID,1.02288,
2007-10-15, 07:24:00,VALID,918.978,VALID,0,VALID,100,VALID,97.9794,VALID,19.0664,VALID,63,VALID,0.842708,
2007-10-15, 07:25:00,VALID,918.999,VALID,0,VALID,100,VALID,104.84,VALID,19.0472,VALID,76,VALID,0.8837,
2007-10-15, 07:26:00,VALID,919.018,VALID,0.2,VALID,100,VALID,110.732,VALID,19.0502,VALID,80,VALID,0.984375,
2007-10-15, 07:27:00,VALID,919.047,VALID,0,VALID,100,VALID,117.287,VALID,19.0632,VALID,71,VALID,0.842115,
2007-10-15, 07:28:00,VALID,919.048,VALID,0,VALID,100,VALID,124.13,VALID,19.0887,VALID,81,VALID,1.28052,
2007-10-15, 07:29:00,VALID,919.082,VALID,0,VALID,100,VALID,131.16,VALID,19.0732,VALID,79,VALID,1.1995,
2007-10-15, 07:30:00,VALID,919.097,VALID,0.2,VALID,100,VALID,140.279,VALID,19.1218,VALID,79,VALID,0.980755,
2007-10-15, 07:31:00,VALID,919.117,VALID,0,VALID,100,VALID,152.709,VALID,19.1468,VALID,71,VALID,1.00495,
2007-10-15, 07:32:00,VALID,919.128,VALID,0,VALID,100,VALID,163.967,VALID,19.2054,VALID,72,VALID,0.96657,
2007-10-15, 07:33:00,VALID,919.157,VALID,0.2,VALID,100,VALID,174.648,VALID,19.2903,VALID,67,VALID,0.640988,
2007-10-15, 07:34:00,VALID,919.175,VALID,0,VALID,100,VALID,184.667,VALID,19.2611,VALID,48,VALID,0.875391,
2007-10-15, 07:35:00,VALID,919.206,VALID,0,VALID,100,VALID,196.978,VALID,19.3032,VALID,62,VALID,0.714208,
2007-10-15, 07:36:00,VALID,919.207,VALID,0,VALID,100,VALID,207.828,VALID,19.43,VALID,74,VALID,0.322856,
2007-10-15, 07:37:00,VALID,919.22,VALID,0,VALID,100,VALID,219.579,VALID,19.4737,VALID,40,VALID,0.716319,
2007-10-15, 07:38:00,VALID,919.238,VALID,0,VALID,100,VALID,231.449,VALID,19.461,VALID,40,VALID,0.854833,
2007-10-15, 07:39:00,VALID,919.24,VALID,0,VALID,100,VALID,245.679,VALID,19.5351,VALID,49,VALID,0.409801,
2007-10-15, 07:40:00,VALID,919.255,VALID,0,VALID,100,VALID,257.497,VALID,19.6586,VALID,78,VALID,0.570694,
2007-10-15, 07:41:00,VALID,919.266,VALID,0,VALID,100,VALID,278.027,VALID,19.7357,VALID,71,VALID,0.768403,
2007-10-15, 07:42:00,VALID,919.267,VALID,0,VALID,100,VALID,306.538,VALID,19.8436,VALID,45,VALID,0.863961,
2007-10-15, 07:43:00,VALID,919.271,VALID,0,VALID,100,VALID,325.862,VALID,19.9087,VALID,45,VALID,0.868075,
2007-10-15, 07:44:00,VALID,919.283,VALID,0,VALID,100,VALID,324.792,VALID,20.0025,VALID,39,VALID,0.383358,
2007-10-15, 07:45:00,VALID,919.277,VALID,0,VALID,100,VALID,307.964,VALID,20.042,VALID,356,VALID,0.624455,
2007-10-15, 07:46:00,VALID,919.285,VALID,0,VALID,100,VALID,293.463,VALID,19.996,VALID,348,VALID,0.218178,
2007-10-15, 07:47:00,VALID,919.291,VALID,0,VALID,100,VALID,281.644,VALID,20.026,VALID,27,VALID,0.494978,
2007-10-15, 07:48:00,VALID,919.3,VALID,0,VALID,100,VALID,282.221,VALID,20.0579,VALID,74,VALID,0.821615,
2007-10-15, 07:49:00,VALID,919.33,VALID,0,VALID,100,VALID,285.906,VALID,20.2299,VALID,39,VALID,0.684659,
2007-10-15, 07:50:00,VALID,919.346,VALID,0,VALID,100,VALID,331.67,VALID,20.3048,VALID,354,VALID,0.0238095,
2007-10-15, 07:51:00,VALID,919.361,VALID,0,VALID,100,VALID,423.417,VALID,20.3927,VALID,7,VALID,0.14826,
2007-10-15, 07:52:00,VALID,919.369,VALID,0,VALID,100,VALID,437.647,VALID,20.5417,VALID,57,VALID,0.555664,
2007-10-15, 07:53:00,VALID,919.361,VALID,0,VALID,100,VALID,405.502,VALID,20.6098,VALID,68,VALID,0.681176,
2007-10-15, 07:54:00,VALID,919.363,VALID,0,VALID,100,VALID,380.931,VALID,20.5028,VALID,70,VALID,1.22805,
2007-10-15, 07:55:00,VALID,919.367,VALID,0,VALID,99.8194,VALID,377.756,VALID,20.4441,VALID,56,VALID,0.991279,
2007-10-15, 07:56:00,VALID,919.382,VALID,0,VALID,99.9535,VALID,301.664,VALID,20.532,VALID,62,VALID,0.302326,
2007-10-15, 07:57:00,VALID,919.389,VALID,0,VALID,100,VALID,250.654,VALID,20.665,VALID,39,VALID,0.29566,
2007-10-15, 07:58:00,VALID,919.42,VALID,0,VALID,99.4799,VALID,241.722,VALID,20.6745,VALID,3,VALID,0.884722,
2007-10-15, 07:59:00,VALID,919.426,VALID,0,VALID,99.4484,VALID,319.07,VALID,20.6715,VALID,349,VALID,0.0901296,
2007-10-15, 08:00:00,VALID,919.433,VALID,0,VALID,99.6735,VALID,399.627,VALID,20.741,VALID,320,VALID,0.367188,
2007-10-15, 08:01:00,VALID,919.433,VALID,0,VALID,99.5361,VALID,295.976,VALID,20.7869,VALID,309,VALID,0.304874,
2007-10-15, 08:02:00,VALID,919.437,VALID,0,VALID,99.4853,VALID,258.703,VALID,20.7899,VALID,309,VALID,0.0824855,
2007-10-15, 08:03:00,VALID,919.444,VALID,0,VALID,99.2449,VALID,238.071,VALID,20.7967,VALID,309,VALID,0.494606,
2007-10-15, 08:04:00,VALID,919.445,VALID,0,VALID,98.0852,VALID,239.667,VALID,20.7026,VALID,293,VALID,0.811719,
2007-10-15, 08:05:00,VALID,919.458,VALID,0,VALID,97.8055,VALID,309.017,VALID,20.5727,VALID,285,VALID,0.454578,
2007-10-15, 08:06:00,VALID,919.447,VALID,0,VALID,97.9008,VALID,225.336,VALID,20.5238,VALID,291,VALID,0.507622,
2007-10-15, 08:07:00,VALID,919.464,VALID,0,VALID,97.7597,VALID,225.539,VALID,20.4835,VALID,293,VALID,0.115972,
2007-10-15, 08:08:00,VALID,919.468,VALID,0,VALID,98.1043,VALID,252.165,VALID,20.4995,VALID,293,VALID,0,
2007-10-15, 08:09:00,VALID,919.471,VALID,0,VALID,98.103,VALID,296.978,VALID,20.5904,VALID,293,VALID,0,
2007-10-15, 08:10:00,VALID,919.493,VALID,0,VALID,97.8093,VALID,357.362,VALID,20.6361,VALID,293,VALID,0,
2007-10-15, 08:11:00,VALID,919.516,VALID,0,VALID,97.9835,VALID,345.866,VALID,20.6975,VALID,293,VALID,0.0651042,
2007-10-15, 08:12:00,VALID,919.523,VALID,0,VALID,96.9891,VALID,346.749,VALID,20.7656,VALID,319,VALID,0.339472,
2007-10-15, 08:13:00,VALID,919.555,VALID,0,VALID,96.9408,VALID,307.455,VALID,20.8443,VALID,340,VALID,0.0343387,
2007-10-15, 08:14:00,VALID,919.561,VALID,0,VALID,97.3744,VALID,286.602,VALID,20.9933,VALID,51,VALID,0.525981,
2007-10-15, 08:15:00,VALID,919.558,VALID,0,VALID,96.8543,VALID,279.98,VALID,21.0483,VALID,79,VALID,0.809273,
2007-10-15, 08:16:00,VALID,919.56,VALID,0,VALID,96.7831,VALID,270.148,VALID,21.0907,VALID,66,VALID,0.696429,
2007-10-15, 08:17:00,VALID,919.552,VALID,0,VALID,96.3596,VALID,251.622,VALID,21.1002,VALID,64,VALID,1.31694,
2007-10-15, 08:18:00,VALID,919.549,VALID,0,VALID,96.4563,VALID,247.394,VALID,21.1332,VALID,85,VALID,1.09922,
2007-10-15, 08:19:00,VALID,919.553,VALID,0,VALID,95.0893,VALID,249.211,VALID,21.0198,VALID,77,VALID,0.70419,
2007-10-15, 08:20:00,VALID,919.583,VALID,0,VALID,95.0423,VALID,242.656,VALID,20.9736,VALID,92,VALID,0.15407,
2007-10-15, 08:21:00,VALID,919.587,VALID,0,VALID,94.465,VALID,243.777,VALID,20.9154,VALID,99,VALID,0.373365,
2007-10-15, 08:22:00,VALID,919.584,VALID,0,VALID,95.1516,VALID,267.142,VALID,20.9192,VALID,99,VALID,0.0708333,
2007-10-15, 08:23:00,VALID,919.589,VALID,0,VALID,95.0499,VALID,317.813,VALID,20.9614,VALID,92,VALID,0.462462,
2007-10-15, 08:24:00,VALID,919.594,VALID,0,VALID,95.392,VALID,436.136,VALID,21.0266,VALID,96,VALID,0.132813,
2007-10-15, 08:25:00,VALID,919.585,VALID,0,VALID,95.1872,VALID,446.137,VALID,21.1013,VALID,94,VALID,1.00502,
2007-10-15, 08:26:00,VALID,919.566,VALID,0,VALID,95.9413,VALID,323.824,VALID,21.2051,VALID,61,VALID,0.90767,
2007-10-15, 08:27:00,VALID,919.558,VALID,0,VALID,96.525,VALID,330.345,VALID,21.3155,VALID,57,VALID,0.465661,
2007-10-15, 08:28:00,VALID,919.56,VALID,0,VALID,96.3724,VALID,351.69,VALID,21.494,VALID,56,VALID,1.03125,
2007-10-15, 08:29:00,VALID,919.567,VALID,0,VALID,95.5852,VALID,312.821,VALID,21.6109,VALID,73,VALID,0.671354,
2007-10-15, 08:30:00,VALID,919.575,VALID,0,VALID,94.8159,VALID,528.817,VALID,21.8284,VALID,25,VALID,0.132254,
2007-10-15, 08:31:00,VALID,919.565,VALID,0,VALID,93.6371,VALID,492.257,VALID,21.9161,VALID,338,VALID,0.400136,
2007-10-15, 08:32:00,VALID,919.547,VALID,0,VALID,93.3714,VALID,332.077,VALID,21.984,VALID,302,VALID,0.607469,
2007-10-15, 08:33:00,VALID,919.548,VALID,0,VALID,92.7343,VALID,265.156,VALID,21.9423,VALID,305,VALID,0.46875,
2007-10-15, 08:34:00,VALID,919.541,VALID,0,VALID,93.744,VALID,262.897,VALID,21.9745,VALID,332,VALID,0.403819,
2007-10-15, 08:35:00,VALID,919.565,VALID,0,VALID,94.1127,VALID,267.482,VALID,21.9702,VALID,33,VALID,0.551669,
2007-10-15, 08:36:00,VALID,919.56,VALID,0,VALID,93.3053,VALID,271.557,VALID,21.9017,VALID,50,VALID,0.861683,
2007-10-15, 08:37:00,VALID,919.572,VALID,0,VALID,93.3027,VALID,286.891,VALID,21.8022,VALID,45,VALID,0.200763,
2007-10-15, 08:38:00,VALID,919.567,VALID,0,VALID,93.1196,VALID,301.512,VALID,21.7841,VALID,52,VALID,0.478198,
2007-10-15, 08:39:00,VALID,919.566,VALID,0,VALID,92.7381,VALID,301.546,VALID,21.7578,VALID,30,VALID,0.522135,
2007-10-15, 08:40:00,VALID,919.555,VALID,0,VALID,93.07,VALID,268.756,VALID,21.7221,VALID,344,VALID,0.332508,
2007-10-15, 08:41:00,VALID,919.556,VALID,0,VALID,93.3866,VALID,250.705,VALID,21.8057,VALID,328,VALID,0.291493,
2007-10-15, 08:42:00,VALID,919.556,VALID,0,VALID,92.4177,VALID,235.337,VALID,21.7935,VALID,320,VALID,0.418717,
2007-10-15, 08:43:00,VALID,919.556,VALID,0,VALID,92.6618,VALID,246.341,VALID,21.7935,VALID,320,VALID,0.310213,
2007-10-15, 08:44:00,VALID,919.564,VALID,0,VALID,92.1583,VALID,266.837,VALID,21.7705,VALID,293,VALID,0.313227,
2007-10-15, 08:45:00,VALID,919.556,VALID,0,VALID,92.5855,VALID,273.629,VALID,21.7965,VALID,285,VALID,0.124645,
2007-10-15, 08:46:00,VALID,919.568,VALID,0,VALID,92.5703,VALID,295.942,VALID,21.8487,VALID,291,VALID,0.461825,
2007-10-15, 08:47:00,VALID,919.564,VALID,0,VALID,91.4652,VALID,354.73,VALID,21.8062,VALID,281,VALID,0.560501,
2007-10-15, 08:48:00,VALID,919.554,VALID,0,VALID,90.7722,VALID,464.222,VALID,21.7416,VALID,279,VALID,0.599888,
2007-10-15, 08:49:00,VALID,919.539,VALID,0,VALID,90.3907,VALID,583.733,VALID,21.7213,VALID,279,VALID,0.493075,
2007-10-15, 08:50:00,VALID,919.546,VALID,0,VALID,89.9584,VALID,393.31,VALID,21.7643,VALID,287,VALID,0.401758,
2007-10-15, 08:51:00,VALID,919.548,VALID,0,VALID,90.6425,VALID,281.542,VALID,21.813,VALID,345,VALID,0.25343,
2007-10-15, 08:52:00,VALID,919.557,VALID,0,VALID,92.3147,VALID,272.305,VALID,21.9913,VALID,11,VALID,0.181996,
2007-10-15, 08:53:00,VALID,919.544,VALID,0,VALID,89.6926,VALID,277.688,VALID,22.0923,VALID,343,VALID,0.427269,
2007-10-15, 08:54:00,VALID,919.561,VALID,0,VALID,88.1642,VALID,308.542,VALID,21.9994,VALID,313,VALID,0.413885,
2007-10-15, 08:55:00,VALID,919.526,VALID,0,VALID,88.7377,VALID,327.985,VALID,22.0232,VALID,3,VALID,0.747396,
2007-10-15, 08:56:00,VALID,919.526,VALID,0,VALID,88.6982,VALID,292.75,VALID,21.9875,VALID,14,VALID,0.63244,
2007-10-15, 08:57:00,VALID,919.505,VALID,0,VALID,88.6626,VALID,293.7,VALID,21.958,VALID,10,VALID,0.528409,
2007-10-15, 08:58:00,VALID,919.497,VALID,0,VALID,89.4854,VALID,293.344,VALID,22.0067,VALID,12,VALID,0.185454,
2007-10-15, 08:59:00,VALID,919.495,VALID,0,VALID,90.3284,VALID,285.448,VALID,22.0976,VALID,54,VALID,0.381882,
2007-10-15, 09:00:00,VALID,919.485,VALID,0,VALID,90.3005,VALID,279.046,VALID,22.2243,VALID,10,VALID,0.392531,
2007-10-15, 09:01:00,VALID,919.486,VALID,0,VALID,88.3218,VALID,272.457,VALID,22.1596,VALID,311,VALID,0.240319,
2007-10-15, 09:02:00,VALID,919.49,VALID,0,VALID,88.4643,VALID,275.752,VALID,22.1791,VALID,279,VALID,0.461682,
2007-10-15, 09:03:00,VALID,919.502,VALID,0,VALID,89.0988,VALID,277.45,VALID,22.1953,VALID,323,VALID,0.423874,
2007-10-15, 09:04:00,VALID,919.511,VALID,0,VALID,89.6189,VALID,280.897,VALID,22.208,VALID,340,VALID,0.300781,
2007-10-15, 09:05:00,VALID,919.51,VALID,0,VALID,89.4726,VALID,283.852,VALID,22.2343,VALID,335,VALID,0.366279,
2007-10-15, 09:06:00,VALID,919.512,VALID,0,VALID,89.0556,VALID,292.733,VALID,22.2343,VALID,352,VALID,0.334549,
2007-10-15, 09:07:00,VALID,919.536,VALID,0,VALID,90.3475,VALID,293.531,VALID,22.3187,VALID,350,VALID,0.00138889,
2007-10-15, 09:08:00,VALID,919.524,VALID,0,VALID,90.6234,VALID,291.153,VALID,22.4749,VALID,31,VALID,0.316319,
2007-10-15, 09:09:00,VALID,919.535,VALID,0,VALID,89.7117,VALID,306.012,VALID,22.4388,VALID,35,VALID,0.68378,
2007-10-15, 09:10:00,VALID,919.535,VALID,0,VALID,89.4052,VALID,304.415,VALID,22.4256,VALID,333,VALID,0.454397,
2007-10-15, 09:11:00,VALID,919.539,VALID,0,VALID,90.0512,VALID,302.429,VALID,22.4938,VALID,335,VALID,0.00104167,
2007-10-15, 09:12:00,VALID,919.551,VALID,0,VALID,90.6222,VALID,316.081,VALID,22.647,VALID,7,VALID,0.0292515,
2007-10-15, 09:13:00,VALID,919.56,VALID,0,VALID,90.0512,VALID,294.516,VALID,22.7863,VALID,260,VALID,0.210211,
2007-10-15, 09:14:00,VALID,919.574,VALID,0,VALID,88.6385,VALID,320.191,VALID,22.8483,VALID,183,VALID,0.0926599,
2007-10-15, 09:15:00,VALID,919.585,VALID,0,VALID,88.8661,VALID,323.977,VALID,22.936,VALID,80,VALID,0.142113,
2007-10-15, 09:16:00,VALID,919.586,VALID,0,VALID,88.0217,VALID,341.824,VALID,23.0337,VALID,28,VALID,0.144531,
2007-10-15, 09:17:00,VALID,919.589,VALID,0,VALID,86.6471,VALID,362.812,VALID,23.0591,VALID,331,VALID,0.404204,
2007-10-15, 09:18:00,VALID,919.606,VALID,0,VALID,86.5569,VALID,408.881,VALID,22.9945,VALID,296,VALID,0.386052,
2007-10-15, 09:19:00,VALID,919.598,VALID,0,VALID,87.7178,VALID,456.275,VALID,22.988,VALID,341,VALID,0.403872,
2007-10-15, 09:20:00,VALID,919.61,VALID,0,VALID,88.4261,VALID,481.356,VALID,23.0077,VALID,338,VALID,0.481105,
2007-10-15, 09:21:00,VALID,919.615,VALID,0,VALID,87.6886,VALID,480.099,VALID,23.0266,VALID,331,VALID,0.762649,
2007-10-15, 09:22:00,VALID,919.601,VALID,0,VALID,86.7412,VALID,483.393,VALID,22.9679,VALID,304,VALID,0.72311,
2007-10-15, 09:23:00,VALID,919.578,VALID,0,VALID,87.9378,VALID,439.82,VALID,22.8681,VALID,320,VALID,1.05636,
2007-10-15, 09:24:00,VALID,919.576,VALID,0,VALID,88.8254,VALID,482.646,VALID,22.7966,VALID,323,VALID,0.494792,
2007-10-15, 09:25:00,VALID,919.56,VALID,0,VALID,89.4294,VALID,363.152,VALID,22.8459,VALID,320,VALID,0.590588,
2007-10-15, 09:26:00,VALID,919.547,VALID,0,VALID,89.5324,VALID,499.118,VALID,22.8819,VALID,304,VALID,0.780887,
2007-10-15, 09:27:00,VALID,919.55,VALID,0,VALID,88.5774,VALID,366.514,VALID,22.9047,VALID,277,VALID,0.794618,
2007-10-15, 09:28:00,VALID,919.552,VALID,0,VALID,88.388,VALID,330.838,VALID,22.9115,VALID,285,VALID,0.291788,
2007-10-15, 09:29:00,VALID,919.557,VALID,0,VALID,89.404,VALID,293.497,VALID,23.0506,VALID,347,VALID,0.171875,
2007-10-15, 09:30:00,VALID,919.561,VALID,0,VALID,87.3923,VALID,345.628,VALID,23.1377,VALID,309,VALID,0.459635,
2007-10-15, 09:31:00,VALID,919.572,VALID,0,VALID,87.3923,VALID,388.165,VALID,23.2779,VALID,289,VALID,0.459794,
2007-10-15, 09:32:00,VALID,919.564,VALID,0,VALID,86.7908,VALID,384.005,VALID,23.3757,VALID,292,VALID,0.269903,
2007-10-15, 09:33:00,VALID,919.545,VALID,0,VALID,86.6001,VALID,583.903,VALID,23.4332,VALID,333,VALID,0.780488,
2007-10-15, 09:34:00,VALID,919.537,VALID,0,VALID,86.1258,VALID,573.443,VALID,23.35,VALID,323,VALID,0.956676,
2007-10-15, 09:35:00,VALID,919.541,VALID,0,VALID,86.5022,VALID,504.993,VALID,23.2428,VALID,301,VALID,0.50651,
2007-10-15, 09:36:00,VALID,919.537,VALID,0,VALID,87.6263,VALID,415.81,VALID,23.2587,VALID,289,VALID,0.21317,
2007-10-15, 09:37:00,VALID,919.534,VALID,0,VALID,87.5487,VALID,448.6,VALID,23.3305,VALID,300,VALID,0.837462,
2007-10-15, 09:38:00,VALID,919.533,VALID,0,VALID,87.1901,VALID,483.546,VALID,23.2135,VALID,317,VALID,0.552083,
2007-10-15, 09:39:00,VALID,919.552,VALID,0,VALID,88.7567,VALID,586.552,VALID,23.2558,VALID,299,VALID,0.411644,
2007-10-15, 09:40:00,VALID,919.531,VALID,0,VALID,88.2748,VALID,630.634,VALID,23.3272,VALID,288,VALID,0.759411,
2007-10-15, 09:41:00,VALID,919.517,VALID,0,VALID,87.26,VALID,592.003,VALID,23.4052,VALID,262,VALID,1.08203,
2007-10-15, 09:42:00,VALID,919.493,VALID,0,VALID,85.8918,VALID,582.765,VALID,23.3954,VALID,256,VALID,0.879687,
2007-10-15, 09:43:00,VALID,919.482,VALID,0,VALID,85.7532,VALID,574.733,VALID,23.4214,VALID,256,VALID,0.715021,
2007-10-15, 09:44:00,VALID,919.482,VALID,0,VALID,84.9432,VALID,580.88,VALID,23.474,VALID,260,VALID,0.536395,
2007-10-15, 09:45:00,VALID,919.464,VALID,0,VALID,85.3984,VALID,579.929,VALID,23.5874,VALID,217,VALID,0.196057,
2007-10-15, 09:46:00,VALID,919.439,VALID,0,VALID,86.169,VALID,564.018,VALID,23.7011,VALID,91,VALID,0.198583,
2007-10-15, 09:47:00,VALID,919.43,VALID,0,VALID,86.0571,VALID,453.439,VALID,23.8048,VALID,342,VALID,0.558499,
2007-10-15, 09:48:00,VALID,919.417,VALID,0,VALID,84.8707,VALID,404.195,VALID,23.8863,VALID,282,VALID,0.727431,
2007-10-15, 09:49:00,VALID,919.411,VALID,0,VALID,84.1993,VALID,490.152,VALID,23.9155,VALID,282,VALID,0.624256,
2007-10-15, 09:50:00,VALID,919.42,VALID,0,VALID,82.77,VALID,595.008,VALID,23.8568,VALID,275,VALID,0.926711,
2007-10-15, 09:51:00,VALID,919.412,VALID,0,VALID,82.8883,VALID,659.06,VALID,23.7534,VALID,280,VALID,0.876488,
2007-10-15, 09:52:00,VALID,919.385,VALID,0,VALID,84.507,VALID,627,VALID,23.7129,VALID,222,VALID,0.637277,
2007-10-15, 09:53:00,VALID,919.366,VALID,0,VALID,83.2481,VALID,649.449,VALID,23.7188,VALID,267,VALID,0.817255,
2007-10-15, 09:54:00,VALID,919.346,VALID,0,VALID,84.1713,VALID,793.616,VALID,23.7224,VALID,266,VALID,0.777344,
2007-10-15, 09:55:00,VALID,919.347,VALID,0,VALID,84.0696,VALID,803.244,VALID,23.7873,VALID,183,VALID,1.05629,
2007-10-15, 09:56:00,VALID,919.355,VALID,0,VALID,82.1418,VALID,583.275,VALID,23.9202,VALID,174,VALID,0.835565,
2007-10-15, 09:57:00,VALID,919.346,VALID,0,VALID,82.0528,VALID,520.361,VALID,24.0404,VALID,185,VALID,0.998365,
2007-10-15, 09:58:00,VALID,919.345,VALID,0,VALID,83.2036,VALID,451.096,VALID,24.1725,VALID,184,VALID,1.01493,
2007-10-15, 09:59:00,VALID,919.346,VALID,0,VALID,83.1985,VALID,609.697,VALID,24.2372,VALID,240,VALID,0.740371,
2007-10-15, 10:00:00,VALID,919.336,VALID,0,VALID,82.6746,VALID,493.514,VALID,24.3474,VALID,225,VALID,0.976017,
2007-10-15, 10:01:00,VALID,919.331,VALID,0,VALID,82.475,VALID,388.131,VALID,24.3973,VALID,218,VALID,0.95419,
2007-10-15, 10:02:00,VALID,919.334,VALID,0,VALID,81.5238,VALID,486.874,VALID,24.4198,VALID,223,VALID,0.324414,
2007-10-15, 10:03:00,VALID,919.335,VALID,0,VALID,81.4755,VALID,791.561,VALID,24.4945,VALID,213,VALID,0.186738,
2007-10-15, 10:04:00,VALID,919.332,VALID,0,VALID,80.7443,VALID,904.467,VALID,24.7226,VALID,226,VALID,0.0744913,
2007-10-15, 10:05:00,VALID,919.32,VALID,0,VALID,80.2548,VALID,861.641,VALID,25.0538,VALID,257,VALID,0.154687,
2007-10-15, 10:06:00,VALID,919.31,VALID,0,VALID,79.9636,VALID,799.78,VALID,25.2781,VALID,29,VALID,0.530134,
2007-10-15, 10:07:00,VALID,919.306,VALID,0,VALID,80.6795,VALID,742.894,VALID,25.2476,VALID,70,VALID,0.957589,
2007-10-15, 10:08:00,VALID,919.285,VALID,0,VALID,81.0533,VALID,716.099,VALID,25.2895,VALID,11,VALID,0.972049,
2007-10-15, 10:09:00,VALID,919.276,VALID,0,VALID,80.6998,VALID,689.388,VALID,25.309,VALID,280,VALID,1.05504,
2007-10-15, 10:10:00,VALID,919.274,VALID,0,VALID,81.0915,VALID,608.406,VALID,25.3126,VALID,280,VALID,1.72046,
2007-10-15, 10:11:00,VALID,919.273,VALID,0,VALID,81.6663,VALID,603.821,VALID,25.0626,VALID,254,VALID,1.07269,
2007-10-15, 10:12:00,VALID,919.277,VALID,0,VALID,82.2944,VALID,703.974,VALID,24.9518,VALID,271,VALID,0.854102,
2007-10-15, 10:13:00,VALID,919.284,VALID,0,VALID,82.6238,VALID,749.789,VALID,24.8998,VALID,235,VALID,0.799306,
2007-10-15, 10:14:00,VALID,919.267,VALID,0,VALID,81.3903,VALID,805.163,VALID,24.8673,VALID,240,VALID,0.883557,
2007-10-15, 10:15:00,VALID,919.247,VALID,0,VALID,82.358,VALID,828.444,VALID,24.9063,VALID,214,VALID,0.904615,
2007-10-15, 10:16:00,VALID,919.216,VALID,0,VALID,83.0968,VALID,832.706,VALID,25.0655,VALID,212,VALID,1.85547,
2007-10-15, 10:17:00,VALID,919.194,VALID,0,VALID,84.418,VALID,841.672,VALID,25.1276,VALID,282,VALID,1.69215,
2007-10-15, 10:18:00,VALID,919.199,VALID,0,VALID,84.9966,VALID,825.048,VALID,25.1566,VALID,317,VALID,1.06032,
2007-10-15, 10:19:00,VALID,919.189,VALID,0,VALID,83.8954,VALID,816.591,VALID,25.1887,VALID,346,VALID,0.496484,
2007-10-15, 10:20:00,VALID,919.18,VALID,0,VALID,82.3974,VALID,852.709,VALID,25.2573,VALID,288,VALID,1.12391,
2007-10-15, 10:21:00,VALID,919.177,VALID,0,VALID,81.8214,VALID,887.333,VALID,25.2378,VALID,253,VALID,1.42769,
2007-10-15, 10:22:00,VALID,919.19,VALID,0,VALID,83.2621,VALID,882.035,VALID,25.2638,VALID,259,VALID,0.968023,
2007-10-15, 10:23:00,VALID,919.186,VALID,0,VALID,81.5594,VALID,899.644,VALID,25.2615,VALID,272,VALID,1.3543,
2007-10-15, 10:24:00,VALID,919.173,VALID,0,VALID,80.9516,VALID,908.933,VALID,25.1501,VALID,264,VALID,1.04743,
2007-10-15, 10:25:00,VALID,919.126,VALID,0,VALID,82.7916,VALID,907.591,VALID,25.1143,VALID,282,VALID,1.00514,
2007-10-15, 10:26:00,VALID,919.097,VALID,0,VALID,83.725,VALID,932.706,VALID,25.2709,VALID,276,VALID,0.918924,
2007-10-15, 10:27:00,VALID,919.06,VALID,0,VALID,82.4483,VALID,936.832,VALID,25.3844,VALID,281,VALID,0.975654,
2007-10-15, 10:28:00,VALID,919.055,VALID,0,VALID,83.1985,VALID,905.673,VALID,25.5147,VALID,268,VALID,1.28374,
2007-10-15, 10:29:00,VALID,919.052,VALID,0,VALID,82.0427,VALID,882.154,VALID,25.6909,VALID,263,VALID,1.34524,
2007-10-15, 10:30:00,VALID,919.042,VALID,0,VALID,80.4074,VALID,859.417,VALID,25.6454,VALID,300,VALID,1.55558,
2007-10-15, 10:31:00,VALID,919.037,VALID,0,VALID,80.6223,VALID,874.598,VALID,25.5342,VALID,240,VALID,1.16134,
2007-10-15, 10:32:00,VALID,919.041,VALID,0,VALID,81.8977,VALID,829.853,VALID,25.5118,VALID,278,VALID,1.22532,
2007-10-15, 10:33:00,VALID,919.021,VALID,0,VALID,79.5389,VALID,655.953,VALID,25.3824,VALID,239,VALID,1.71129,
2007-10-15, 10:34:00,VALID,919.005,VALID,0,VALID,83.168,VALID,898.592,VALID,25.2222,VALID,280,VALID,1.83708,
2007-10-15, 10:35:00,VALID,919.018,VALID,0,VALID,82.7268,VALID,902.752,VALID,25.1776,VALID,277,VALID,1.56765,